Preview of NWS' New Version of Forecast
This preview is not operational and should not be used for support decisions.

Regional Weather Roundup (RWR)

Issued by National Weather Service (NWS)

                            
000
ASPQ40 PGUM 230410
RWRPQ 
WEATHER ROUNDUP FOR THE MARIANAS AND MICRONESIA
NATIONAL WEATHER SERVICE TIYAN GU
200 PM CHST SUN JUN 23 2019

GUZ001>004-230500-
MARIANA ISLANDS-
  
CITY           SKY/WX    TMP DP  RH WIND       PRES   REMARKS
GUAM AIRPORT   PTSUNNY   88  75  66 E16       29.84F HX  97           
ANDERSEN AFB   MOSUNNY   88  77  70 E15G22    29.85F HX 100           
ROTA AIRPORT   MOSUNNY   86  73  66 E21       29.84F HX  93           
TINIAN AP      MOSUNNY   90  77  66 E17       29.83F HX 102           
SAIPAN AP      MOSUNNY   90  75  62 SE17G24   29.84F HX 100           

$$

PMZ161-230500-
REPUBLIC OF PALAU-
  
CITY           SKY/WX    TMP DP  RH WIND       PRES   REMARKS
KOROR AP       PTSUNNY   82  79  89 SW5       29.76F HX  93           
KOROR WSO      NOT AVBL                                               

$$

PMZ171>174-230500-
FEDERATED STATES OF MICRONESIA-
  
CITY           SKY/WX    TMP DP  RH WIND       PRES   REMARKS
YAP AIRPORT    PTSUNNY   90  81  74 VRB7      29.81F HX 108           
CHUUK AP       PTSUNNY   84  79  84 VRB6      29.76F HX  96           
POHNPEI AP     CLOUDY    88  77  70 E12       29.75F HX 100           
POHNPEI WSO    CLOUDY    88  79  74 E6        29.78F HX 102           
KOSRAE AP      NOT AVBL                                               

$$

PMZ181-230500-
REPUBLIC OF THE MARSHALL ISLANDS-
  
CITY           SKY/WX    TMP DP  RH WIND       PRES   REMARKS
KWAJALEIN AP   MOSUNNY   88  77  70 NE14      29.77F HX 100           
MAJURO AP      PTSUNNY   86  77  74 NE13      29.76S HX  97           
MAJURO WSO     PTSUNNY   84  75  74 E13       29.74S HX  92           

$$